DW0148 Weather Reports


Display with metric or nautical units.
time (UTC)temp
F
wind
direction
speed
MPH
gust
MPH
rain 1hr
in
rain 24hr
in
rain mn
in
humidity
%
barometer
mb
20171122130605 43 310 3.0 8.0 0.00 0.01 0.00 75 1023.9
20171122130105 43 25 2.0 8.0 0.00 0.01 0.00 75 1023.5
20171122125604 43 340 3.0 8.0 0.00 0.01 0.00 75 1023.5
20171122125102 43 348 2.0 6.0 0.00 0.01 0.00 75 1023.5
20171122124601 43 337 2.0 9.0 0.00 0.01 0.00 75 1023.2
20171122124100 43 7 3.0 9.0 0.00 0.01 0.00 74 1023.2
20171122123559 43 344 3.0 11.0 0.00 0.01 0.00 74 1023.2
20171122123058 43 3 5.0 11.0 0.00 0.01 0.00 75 1023.2
20171122122557 43 334 3.0 5.0 0.00 0.01 0.00 74 1023.2
20171122122057 43 44 1.0 5.0 0.00 0.01 0.00 74 1022.9
20171122121555 43 355 1.0 8.0 0.00 0.01 0.00 74 1022.9
20171122121054 44 352 2.0 8.0 0.00 0.01 0.00 73 1022.5
20171122120553 44 17 2.0 11.0 0.00 0.01 0.00 73 1022.5
20171122120052 44 5 4.0 11.0 0.00 0.01 0.00 73 1022.2
20171122115552 44 331 2.0 9.0 0.00 0.01 0.00 74 1022.2
20171122115051 43 20 2.0 9.0 0.00 0.01 0.00 75 1022.2
20171122114550 43 344 3.0 10.0 0.00 0.01 0.00 76 1022.2
20171122114049 42 349 2.0 10.0 0.00 0.01 0.00 77 1021.8
20171122113548 42 199 2.0 5.0 0.00 0.01 0.00 79 1021.8
20171122113047 41 141 1.0 5.0 0.00 0.01 0.00 80 1021.8
20171122112046 40 210 1.0 6.0 0.00 0.01 0.00 84 1021.8
20171122111544 39 209 1.0 6.0 0.00 0.01 0.00 85 1021.8
20171122111044 38 61 0.0 1.0 0.00 0.01 0.00 88 1021.8
20171122110543 37 61 0.0 1.0 0.00 0.01 0.00 89 1021.8
20171122110041 36 61 1.0 1.0 0.00 0.01 0.00 91 1021.8
20171122105541 36 62 1.0 1.0 0.00 0.01 0.00 91 1021.5
20171122105035 36 63 0.0 2.0 0.00 0.01 0.00 91 1021.5
20171122104534 37 61 0.0 2.0 0.00 0.01 0.00 90 1021.5
20171122104033 37 61 0.0 3.0 0.00 0.01 0.00 90 1021.5
20171122103532 37 58 1.0 3.0 0.00 0.01 0.00 91 1021.5
20171122103031 37 53 1.0 2.0 0.00 0.01 0.00 91 1021.5
20171122102530 37 53 0.0 2.0 0.00 0.01 0.00 90 1021.5
20171122102025 37 53 0.0 3.0 0.00 0.01 0.00 90 1021.5
20171122101525 37 53 1.0 3.0 0.00 0.01 0.00 90 1021.5
20171122101024 37 53 0.0 2.0 0.00 0.01 0.00 90 1021.5
20171122100523 37 53 0.0 2.0 0.00 0.01 0.00 90 1021.2
20171122100022 36 53 1.0 3.0 0.00 0.01 0.00 91 1021.5
20171122095521 37 51 2.0 3.0 0.00 0.01 0.00 91 1021.5
20171122095020 37 49 1.0 1.0 0.00 0.01 0.00 90 1021.2
20171122094519 37 49 0.0 1.0 0.00 0.01 0.00 90 1021.2
20171122094018 37 49 1.0 1.0 0.00 0.01 0.00 91 1021.2
20171122093517 37 48 1.0 1.0 0.00 0.01 0.00 91 1021.2
20171122093015 37 49 0.0 1.0 0.00 0.01 0.00 90 1021.2
20171122092513 37 49 1.0 1.0 0.00 0.01 0.00 90 1021.2
20171122092017 37 49 1.0 1.0 0.00 0.01 0.00 90 1021.2
20171122091511 37 49 1.0 1.0 0.00 0.01 0.00 90 1021.2
20171122091011 37 49 1.0 2.0 0.00 0.01 0.00 90 1020.8
20171122090509 37 49 1.0 3.0 0.00 0.01 0.00 90 1021.2
20171122090008 37 49 0.0 3.0 0.00 0.01 0.00 90 1021.2
20171122085508 38 49 2.0 3.0 0.00 0.01 0.00 89 1021.2
20171122085007 38 48 0.0 1.0 0.00 0.01 0.00 89 1021.2
20171122084506 38 49 0.0 1.0 0.00 0.01 0.00 88 1021.2
20171122084005 38 49 1.0 1.0 0.00 0.01 0.00 88 1020.8
20171122083504 38 49 0.0 1.0 0.00 0.01 0.00 89 1020.8
20171122083002 38 49 0.0 1.0 0.00 0.01 0.00 89 1020.8
20171122082501 38 49 0.0 1.0 0.00 0.01 0.00 88 1020.8
20171122082000 38 48 0.0 1.0 0.00 0.01 0.00 88 1020.8
20171122081459 39 49 0.0 1.0 0.00 0.01 0.00 88 1020.8
20171122080958 39 49 1.0 1.0 0.00 0.01 0.00 87 1020.8
20171122080457 39 49 1.0 1.0 0.00 0.01 0.00 87 1020.8
20171122075956 39 49 1.0 3.0 0.00 0.01 0.00 87 1020.8
20171122075455 39 49 2.0 3.0 0.00 0.01 0.00 87 1020.8
20171122074955 39 49 0.0 2.0 0.00 0.01 0.00 86 1020.8
20171122074454 40 49 1.0 3.0 0.00 0.01 0.00 86 1020.8
20171122073953 40 49 1.0 3.0 0.00 0.01 0.00 85 1020.8
20171122073452 40 49 0.0 3.0 0.00 0.01 0.00 84 1020.8
20171122072951 40 49 1.0 3.0 0.00 0.01 0.00 84 1020.8
20171122072450 40 267 0.0 2.0 0.00 0.01 0.00 84 1020.8
20171122071949 41 266 0.0 2.0 0.00 0.01 0.00 84 1020.8
20171122071449 41 266 0.0 3.0 0.00 0.01 0.00 83 1020.8
20171122070947 41 266 0.0 3.0 0.00 0.01 0.00 82 1020.8
20171122070447 41 120 0.0 1.0 0.00 0.01 0.00 84 1020.5
20171122065946 41 120 1.0 1.0 0.00 0.01 0.00 84 1020.8
20171122065444 42 120 0.0 1.0 0.00 0.01 0.00 84 1020.5
20171122064944 42 120 0.0 1.0 0.00 0.01 0.00 84 1020.5
20171122064443 43 120 0.0 5.0 0.00 0.01 0.00 82 1020.5
20171122063942 43 120 0.0 5.0 0.00 0.01 0.00 80 1020.5
20171122063441 43 238 0.0 6.0 0.00 0.01 0.00 79 1020.1
20171122062940 43 252 3.0 6.0 0.00 0.01 0.00 81 1020.1
20171122062439 44 63 1.0 3.0 0.00 0.01 0.00 81 1020.1
20171122061938 44 63 0.0 3.0 0.00 0.01 0.00 79 1020.1
20171122061437 45 63 1.0 4.0 0.00 0.01 0.00 78 1020.1
20171122060936 45 78 2.0 5.0 0.00 0.01 0.00 76 1020.1
20171122060435 45 73 2.0 5.0 0.00 0.01 0.00 77 1020.1
20171122055934 46 84 1.0 2.0 0.00 0.01 0.00 76 1020.5
20171122055433 45 77 0.0 2.0 0.00 0.01 0.00 74 1020.5
20171122054932 45 77 1.0 3.0 0.00 0.01 0.00 76 1020.5
20171122054431 44 94 1.0 3.0 0.00 0.01 0.00 81 1020.5
20171122053930 44 87 1.0 3.0 0.00 0.01 0.00 85 1020.5
20171122053428 44 89 1.0 3.0 0.00 0.01 0.00 85 1020.5
20171122052927 45 90 0.0 1.0 0.00 0.01 0.00 86 1020.1
20171122052426 45 90 0.0 1.0 0.00 0.01 0.00 84 1019.8
20171122051925 45 90 0.0 1.0 0.00 0.01 0.00 85 1020.1
20171122051424 45 90 1.0 1.0 0.00 0.01 0.00 85 1019.8
20171122050923 45 92 1.0 1.0 0.00 0.01 0.00 86 1019.8
20171122050422 46 113 0.0 1.0 0.00 0.01 0.00 85 1020.1
20171122045922 46 113 1.0 1.0 0.00 0.01 0.01 84 1020.1
20171122045421 47 131 0.0 1.0 0.00 0.01 0.01 85 1020.1
20171122044920 47 131 1.0 1.0 0.00 0.01 0.01 84 1020.1
20171122044419 47 131 1.0 1.0 0.00 0.01 0.01 85 1020.1
20171122043918 48 131 0.0 1.0 0.00 0.01 0.01 85 1020.1
20171122043417 48 232 1.0 1.0 0.00 0.01 0.01 82 1020.1
20171122042915 48 232 0.0 1.0 0.00 0.01 0.01 80 1020.1
20171122042415 48 232 0.0 1.0 0.00 0.01 0.01 82 1020.1
20171122041843 48 233 0.0 1.0 0.00 0.01 0.01 82 1020.5
20171122041342 48 232 0.0 3.0 0.00 0.01 0.01 89 1020.5
20171122040841 48 232 0.0 3.0 0.00 0.01 0.01 91 1020.5
20171122040309 48 233 0.0 4.0 0.00 0.01 0.01 92 1020.5
20171122035807 48 266 1.0 4.0 0.00 0.01 0.01 94 1020.5
20171122035306 48 301 0.0 0.0 0.00 0.01 0.01 94 1020.5
20171122034805 48 301 0.0 1.0 0.00 0.01 0.01 94 1020.5
20171122034304 48 301 0.0 1.0 0.00 0.01 0.01 94 1020.5
20171122033803 48 301 0.0 1.0 0.00 0.01 0.01 94 1020.5
20171122033302 48 301 0.0 1.0 0.00 0.01 0.01 94 1020.5
20171122032801 48 301 1.0 1.0 0.00 0.01 0.01 94 1020.1
20171122032300 48 107 0.0 1.0 0.00 0.01 0.01 94 1020.1
20171122031759 48 108 0.0 1.0 0.00 0.01 0.01 94 1020.1
20171122031258 47 108 0.0 0.0 0.00 0.01 0.01 94 1020.1
20171122030757 47 107 0.0 0.0 0.00 0.01 0.01 94 1020.1
20171122030253 47 107 0.0 0.0 0.00 0.01 0.01 95 1019.8
20171122025752 47 107 0.0 1.0 0.00 0.01 0.01 95 1019.8
20171122025251 47 108 0.0 1.0 0.00 0.01 0.01 94 1019.8
20171122024750 47 107 0.0 1.0 0.00 0.01 0.01 94 1019.8
20171122024249 46 107 0.0 1.0 0.00 0.01 0.01 94 1019.8
20171122023748 46 107 0.0 1.0 0.00 0.01 0.01 94 1019.8
20171122023247 46 107 1.0 1.0 0.00 0.01 0.01 94 1019.8
20171122022804 46 107 0.0 0.0 0.00 0.01 0.01 94 1019.8
20171122013919 48 107 0.0 0.0 0.00 0.01 0.01 91 1019.5
20171122013418 48 108 0.0 1.0 0.00 0.01 0.01 91 1019.5
20171122012917 49 107 0.0 1.0 0.00 0.01 0.01 91 1019.5
20171122012416 49 107 0.0 1.0 0.00 0.01 0.01 91 1019.5
20171122011915 49 107 0.0 1.0 0.00 0.01 0.01 91 1019.5
20171122011414 49 108 0.0 1.0 0.00 0.01 0.01 92 1019.5
20171122010912 49 109 0.0 1.0 0.00 0.01 0.01 91 1019.1
20171122010412 49 108 0.0 1.0 0.00 0.01 0.01 91 1019.1
20171122005911 50 112 1.0 1.0 0.00 0.01 0.01 90 1019.1
20171122005410 50 111 0.0 1.0 0.00 0.01 0.01 90 1019.1
20171122004909 50 112 0.0 1.0 0.00 0.01 0.01 89 1019.1
20171122004408 51 113 0.0 1.0 0.00 0.01 0.01 89 1019.1
20171122003907 51 113 0.0 1.0 0.00 0.01 0.01 90 1019.1
20171122003406 51 113 1.0 1.0 0.00 0.01 0.01 90 1018.8
20171122002905 51 113 0.0 0.0 0.00 0.01 0.01 89 1018.8
20171122002405 51 113 0.0 0.0 0.00 0.01 0.01 89 1018.8
20171122001903 51 113 0.0 0.0 0.00 0.01 0.01 89 1018.8
20171122001402 51 113 0.0 0.0 0.00 0.01 0.01 89 1018.8
20171122000901 51 113 0.0 0.0 0.00 0.01 0.01 89 1018.8
20171122000400 51 113 0.0 0.0 0.00 0.01 0.01 89 1018.8
20171121235900 51 113 0.0 0.0 0.00 0.01 0.01 89 1018.5
20171121235358 51 113 0.0 0.0 0.00 0.01 0.01 89 1018.5
20171121234857 51 113 0.0 1.0 0.00 0.01 0.01 89 1018.5
20171121234356 51 113 0.0 1.0 0.00 0.01 0.01 89 1018.5
20171121233855 51 113 0.0 1.0 0.00 0.01 0.01 88 1018.5
20171121233355 51 113 0.0 1.0 0.00 0.01 0.01 88 1018.5
20171121232854 51 128 1.0 1.0 0.00 0.01 0.01 88 1018.5
20171121232353 51 128 0.0 1.0 0.00 0.01 0.01 88 1018.5
20171121231851 51 128 0.0 1.0 0.00 0.01 0.01 88 1018.5
20171121231350 51 129 1.0 1.0 0.00 0.01 0.01 88 1018.1
20171121230849 51 128 0.0 1.0 0.00 0.01 0.01 87 1018.1
20171121230349 51 128 0.0 1.0 0.00 0.01 0.01 87 1018.1
20171121225847 50 128 0.0 1.0 0.00 0.01 0.01 87 1018.1
20171121225347 51 128 0.0 1.0 0.00 0.01 0.01 87 1018.1
20171121224845 51 128 0.0 1.0 0.00 0.01 0.01 85 1018.5
20171121224345 51 128 1.0 1.0 0.00 0.01 0.01 85 1018.5
20171121223844 52 138 0.0 1.0 0.00 0.01 0.01 83 1018.5
20171121223343 53 138 1.0 1.0 0.00 0.01 0.01 83 1018.5
20171121222841 54 139 1.0 1.0 0.00 0.01 0.01 82 1018.5
20171121222341 55 147 0.0 0.0 0.00 0.01 0.01 81 1018.5
20171121221840 56 146 0.0 2.0 0.00 0.01 0.01 79 1018.5
20171121221339 56 146 0.0 2.0 0.00 0.01 0.01 77 1018.5
20171121220838 57 147 0.0 3.0 0.00 0.01 0.01 76 1018.5
20171121220337 57 146 0.0 3.0 0.00 0.01 0.01 75 1018.5
20171121215836 58 273 0.0 1.0 0.00 0.01 0.01 74 1018.5
20171121215336 58 210 1.0 1.0 0.00 0.01 0.01 74 1018.5
20171121214835 58 197 0.0 3.0 0.00 0.01 0.01 74 1018.5
20171121214334 58 197 0.0 3.0 0.00 0.01 0.01 73 1018.5
20171121213833 58 132 0.0 4.0 0.00 0.01 0.01 72 1018.8
20171121213332 59 141 2.0 4.0 0.00 0.01 0.01 71 1018.8
20171121212831 59 207 0.0 1.0 0.00 0.01 0.01 70 1018.5
20171121212330 59 215 1.0 1.0 0.00 0.01 0.01 69 1018.8
20171121211759 59 238 1.0 1.0 0.00 0.01 0.01 70 1018.8
20171121211258 59 238 0.0 2.0 0.00 0.01 0.01 70 1018.8
20171121210757 59 130 1.0 4.0 0.00 0.01 0.01 70 1018.8
20171121210256 59 143 1.0 4.0 0.00 0.01 0.01 70 1018.8
20171121205754 59 153 2.0 4.0 0.00 0.01 0.01 69 1018.8
20171121205254 59 187 2.0 4.0 0.00 0.01 0.01 68 1018.8
20171121204753 59 179 2.0 6.0 0.00 0.01 0.01 68 1018.8
20171121204252 59 165 1.0 6.0 0.00 0.01 0.01 68 1018.8
20171121203751 59 123 1.0 6.0 0.00 0.01 0.01 69 1018.8
20171121203250 58 186 4.0 6.0 0.00 0.01 0.01 69 1018.8
20171121202750 58 138 0.0 4.0 0.00 0.01 0.01 70 1018.8
20171121202249 58 162 1.0 5.0 0.00 0.01 0.01 70 1018.8
20171121201748 58 102 1.0 5.0 0.00 0.01 0.01 68 1019.1
20171121201247 58 70 2.0 5.0 0.00 0.01 0.01 68 1019.1
20171121200746 58 135 1.0 6.0 0.00 0.01 0.01 69 1019.1
20171121200245 58 71 3.0 6.0 0.00 0.01 0.01 68 1019.1
20171121195744 58 158 2.0 8.0 0.00 0.01 0.01 68 1019.1
20171121195244 58 89 2.0 8.0 0.00 0.01 0.01 68 1019.1
20171121194743 58 118 2.0 5.0 0.00 0.01 0.01 68 1019.5
20171121194242 57 122 1.0 6.0 0.00 0.01 0.01 69 1019.5
20171121193741 57 53 3.0 6.0 0.00 0.01 0.01 70 1019.5
20171121193240 57 169 3.0 8.0 0.00 0.01 0.01 70 1019.5
20171121192739 56 141 2.0 8.0 0.00 0.01 0.01 70 1019.5
20171121192238 56 182 3.0 5.0 0.00 0.01 0.01 70 1019.8
20171121191736 56 178 2.0 4.0 0.00 0.01 0.01 70 1019.8
20171121191235 56 198 2.0 5.0 0.00 0.01 0.01 70 1020.1
20171121190734 56 185 2.0 5.0 0.00 0.01 0.01 71 1020.1
20171121190233 55 224 1.0 6.0 0.00 0.01 0.01 70 1020.1
20171121185732 55 166 3.0 6.0 0.00 0.01 0.01 71 1020.1
20171121185231 55 139 3.0 8.0 0.00 0.01 0.01 71 1020.5
20171121184730 55 192 4.0 8.0 0.00 0.01 0.01 71 1020.1
20171121184229 55 208 1.0 6.0 0.00 0.01 0.01 71 1020.1
20171121183728 54 191 2.0 6.0 0.00 0.01 0.01 71 1020.1
20171121183228 54 218 1.0 4.0 0.00 0.01 0.01 70 1020.5
20171121182726 54 203 1.0 2.0 0.00 0.01 0.01 72 1020.5
20171121182226 54 166 1.0 3.0 0.00 0.01 0.01 71 1020.5
20171121181725 54 222 1.0 3.0 0.00 0.01 0.01 71 1020.8
20171121181224 54 249 1.0 2.0 0.00 0.01 0.01 71 1020.8
20171121180724 54 235 0.0 3.0 0.00 0.01 0.01 71 1020.8
20171121180222 54 203 0.0 3.0 0.00 0.01 0.01 70 1020.8
20171121175721 54 224 0.0 3.0 0.00 0.01 0.01 70 1021.2
20171121175220 54 195 2.0 4.0 0.00 0.01 0.01 70 1021.2
20171121174719 55 180 2.0 4.0 0.00 0.01 0.01 68 1021.2
20171121174218 54 250 1.0 4.0 0.00 0.01 0.01 69 1021.2
20171121173717 54 170 2.0 4.0 0.00 0.01 0.01 70 1021.2
20171121173216 54 226 0.0 3.0 0.00 0.01 0.01 70 1021.5
20171121172715 54 219 1.0 4.0 0.00 0.01 0.01 70 1021.5
20171121172214 54 264 3.0 4.0 0.00 0.01 0.01 70 1021.5
20171121171713 53 228 2.0 3.0 0.00 0.01 0.01 70 1021.5
20171121171212 53 235 0.0 5.0 0.00 0.01 0.01 71 1021.8
20171121170640 52 214 1.0 5.0 0.00 0.01 0.01 71 1021.8
20171121170139 53 177 2.0 5.0 0.00 0.01 0.01 69 1021.8
20171121165608 53 175 3.0 5.0 0.00 0.01 0.01 69 1021.8
20171121165107 53 210 2.0 4.0 0.00 0.01 0.01 69 1021.8
20171121164606 53 229 2.0 5.0 0.00 0.01 0.01 69 1021.8
20171121164105 53 237 1.0 5.0 0.00 0.01 0.01 70 1021.8
20171121163604 52 222 1.0 6.0 0.00 0.01 0.01 71 1021.8
20171121163103 51 215 2.0 6.0 0.00 0.01 0.01 72 1021.8
20171121162602 51 232 1.0 4.0 0.00 0.01 0.01 72 1021.8
20171121162101 51 215 1.0 4.0 0.00 0.01 0.01 71 1022.2
20171121161601 51 233 2.0 4.0 0.00 0.01 0.01 70 1022.2
20171121161100 51 228 1.0 4.0 0.00 0.01 0.01 71 1022.2
20171121160559 51 248 2.0 4.0 0.00 0.01 0.01 71 1022.2
20171121160058 50 223 1.0 3.0 0.00 0.01 0.01 73 1022.2
20171121155558 50 215 1.0 3.0 0.00 0.01 0.01 73 1022.2
20171121155057 50 210 1.0 3.0 0.00 0.01 0.01 73 1022.5
20171121154556 49 221 0.0 3.0 0.00 0.01 0.01 73 1022.5
20171121154055 49 149 1.0 5.0 0.00 0.01 0.01 72 1022.5
20171121153554 49 67 2.0 5.0 0.00 0.01 0.01 74 1022.5
20171121153054 48 287 0.0 4.0 0.01 0.01 0.01 74 1022.5
20171121152552 48 185 1.0 6.0 0.01 0.01 0.01 73 1022.5
20171121152021 48 50 2.0 6.0 0.01 0.01 0.01 74 1022.5
20171121151519 48 65 3.0 8.0 0.01 0.01 0.01 74 1022.9
20171121151019 48 168 4.0 8.0 0.01 0.01 0.01 73 1023.2
20171121150518 48 179 2.0 3.0 0.01 0.01 0.01 74 1022.9
20171121150016 47 150 2.0 4.0 0.01 0.01 0.01 74 1022.9
20171121145516 47 179 2.0 4.0 0.01 0.01 0.01 76 1022.9
20171121145015 46 139 1.0 3.0 0.01 0.01 0.01 77 1023.2
20171121144514 46 157 1.0 3.0 0.01 0.01 0.01 75 1023.2
20171121144014 45 190 0.0 1.0 0.01 0.01 0.01 77 1022.9
20171121143513 45 190 0.0 1.0 0.00 0.00 0.00 81 1022.9
20171121143012 44 149 1.0 1.0 0.00 0.00 0.00 81 1022.9
20171121142511 43 109 1.0 1.0 0.00 0.00 0.00 86 1022.9
20171121142010 42 96 0.0 1.0 0.00 0.00 0.00 86 1022.9
20171121141509 42 96 0.0 0.0 0.00 0.00 0.00 86 1022.9
20171121141008 41 96 0.0 0.0 0.00 0.00 0.00 87 1022.5
20171121140436 40 96 0.0 0.0 0.00 0.00 0.00 89 1022.9
20171121135936 40 96 0.0 0.0 0.00 0.00 0.00 91 1022.9
20171121135404 39 96 0.0 1.0 0.00 0.00 0.00 90 1022.9
20171121134903 39 96 0.0 2.0 0.00 0.00 0.00 90 1022.9
20171121134331 39 96 0.0 2.0 0.00 0.00 0.00 91 1022.9
20171121133830 38 73 0.0 3.0 0.00 0.00 0.00 91 1022.9
20171121133329 38 74 2.0 3.0 0.00 0.00 0.00 93 1022.5
20171121132828 37 74 0.0 3.0 0.00 0.00 0.00 94 1022.9
20171121132327 37 73 1.0 3.0 0.00 0.00 0.00 95 1022.9
20171121131826 36 75 0.0 1.0 0.00 0.00 0.00 95 1022.9
20171121131325 35 75 0.0 1.0 0.00 0.00 0.00 95 1022.9
20171121130753 35 75 1.0 1.0 0.00 0.00 0.00 95 1022.9